Regional Weather Roundup
Issued by NWS

Home | Current Version | Previous Version | Text Only | Print | Product List | Glossary Off
Versions: 1 2 3 4 5 6 7 8 9 10 11 12 13 14 15 16 17 18 19 20 21 22 23 24 25 26 27 28 29 30 31 32 33 34 35 36 37 38 39 40 41 42 43 44 45 46 47 48 49 50

926
ASUS44 KFWD 220515
RWRTX
NORTH TEXAS HOURLY WEATHER ROUNDUP
NATIONAL WEATHER SERVICE FORT WORTH TX
1200 AM CDT FRI SEP 22 2017

NOTE: "FAIR" INDICATES FEW OR NO CLOUDS BELOW 12,000 FEET WITH NO
SIGNIFICANT WEATHER AND/OR OBSTRUCTIONS TO VISIBILITY.

TXZ118-119-220600-
DALLAS/FORT WORTH METROPLEX

CITY           SKY/WX    TMP DP  RH WIND       PRES   REMARKS
DFW AIRPORT    CLEAR     80  71  74 S12       29.92R
DALLAS LOVE    CLEAR     80  70  71 S13       29.93S
FTW MEACHAM    CLEAR     81  70  69 SE13      29.92R
DAL-EXECUTIVE  CLEAR     78  71  79 S9G18     29.93S
FTW-ALLIANCE   CLEAR     80  69  69 SE12      29.92R
FTW-NAS-JRB    CLEAR     82  68  62 S9G28     29.92S
FTW-SPINKS     CLEAR     78  69  73 SE7       29.94S
ARLINGTON      CLEAR     78  71  79 SE10      29.93S
GRAND PRAIRIE  CLEAR     78  68  71 SE8       29.95R
ADDISON        CLEAR     78  70  77 S13G18    29.95F
MESQUITE       CLEAR     76  72  86 SE7       29.95S
LANCASTER      CLEAR     77  70  80 S7        29.95S
$$

TXZ091>094-102>105-117-120-121-131>134-220600-
NORTH CENTRAL TEXAS

CITY           SKY/WX    TMP DP  RH WIND       PRES   REMARKS
SHRMAN/DENISON CLEAR     78  69  74 SE13      29.95S
GAINESVILLE    CLEAR     78  68  71 SE10      29.94S
BOWIE          CLEAR     79  70  73 SE8       29.92S
BRIDGEPORT     CLEAR     80  69  69 SE7       29.93S
DECATUR        CLEAR     79  68  68 SE10      29.92S
DENTON         CLEAR     79  70  74 SE14      29.92S
MCKINNEY       CLEAR     78  73  84 S14       29.94S
BONHAM         CLEAR     75  69  79 S10       29.96S
GREENVILLE     CLEAR     77  72  83 SE6       29.96S
ROCKWALL       CLEAR     76  72  87 S7        29.95F
TERRELL        CLEAR     76  70  82 SE7       29.95F
WAXAHACHIE     CLEAR     76  71  83 SE7       29.96S
CLEBURNE       CLEAR     77  73  88 S12       29.95S
GRANBURY       CLEAR     81  70  70 SE8       29.93S
$$

TXZ083>090-098>101-113>116-127>130-139>142-154-155-220600-
WESTERN NORTH TEXAS

CITY           SKY/WX    TMP DP  RH WIND       PRES   REMARKS
WICHITA FALLS  CLEAR     79  67  66 SE12      29.88R
WF-KICKAPOO    CLEAR     80  68  66 SE12G18   29.90S
VERNON         CLEAR     83  62  49 SE14      29.87R
ABILENE        CLEAR     80  65  59 S14       29.91S
ABILENE-DYESS  CLEAR     81  65  58 SE14      29.90R
GRAHAM         CLEAR     82  68  63 SE10G16   29.89S
BRECKENRIDGE   CLEAR     82  68  62 SE14G21   29.91R
CISCO          CLEAR     79  68  69 SE10      29.94R
EASTLAND       CLEAR     78  69  73 S10       29.93R
RANGER         CLEAR     77  69  75 S12       29.94R
MINERAL WELLS  CLEAR     80  69  69 SE9       29.90F
STEPHENVILLE   CLEAR     77  69  77 S9        29.97R
COMANCHE       CLEAR     76  69  78 S9G16     29.94S
BROWNWOOD      MOCLDY    77  68  73 SE10      29.93S
COLEMAN        CLEAR     79  67  66 S9        29.93S
$$

TXZ143>147-156>162-174-175-220600-
CENTRAL TEXAS

CITY           SKY/WX    TMP DP  RH WIND       PRES   REMARKS
WACO           CLEAR     77  70  79 SE9       29.94R
WACO-MCGREGOR  CLEAR     76  70  82 SE12      29.95R
HILLSBORO      PTCLDY    77  72  83 SE9       29.95R
CORSICANA      CLEAR     76  72  87 SE10      29.96S
MEXIA          CLEAR     74  70  88 SE6       29.95S
CAMERON        CLEAR     74  71  90 SE5       29.96R
TEMPLE         CLOUDY    76  71  85 SE12      29.95S
KILLEEN        CLEAR     77  70  78 SE13      29.94S
FORT HOOD      MOCLDY    73  70  88 S13       29.92R
GATESVILLE     CLEAR     75  70  83 SE7       29.96R
HAMILTON       CLEAR     76  69  78 S10       29.95S
LAMPASAS       CLEAR     76  72  88 SE6       29.95R
$$

TXZ095>097-106>112-122>126-135>138-148>153-164>167-220600-
EAST TEXAS

CITY           SKY/WX    TMP DP  RH WIND       PRES   REMARKS
PARIS          CLEAR     74  69  85 S6        29.98R
SULPHUR SPRNGS CLEAR     76  71  82 S7        29.98F
MOUNT PLEASANT CLEAR     71  69  93 CALM      29.98F
GILMER         CLEAR     72  70  93 S3        29.97F
MINEOLA        PTCLDY    75  72  88 SE6       29.97S
TYLER          PTCLDY    74  73  97 S7        29.97S
LONGVIEW       PTCLDY    73  70  90 S3        29.96F
MARSHALL       PTCLDY    70  67  90 MISG      29.99F
ATHENS         CLEAR     73  73 100 CALM      29.95F
PALESTINE      PTCLDY    76  74  93 SE5       29.98S
JACKSONVILLE   PTCLDY    73  73  98 S6        30.00F
HENDERSON      PTCLDY    71  70  97 CALM      29.99S
CENTER         CLOUDY    74  73  96 CALM      29.99S
NACOGDOCHES    PTCLDY    71  70  96 CALM      29.98F
LUFKIN         CLEAR     73  72  96 CALM      29.97S
$$

SUPPLEMENTAL OBSERVATIONS (NWS FORT WORTH AREA)

CITY           SKY/WX    TMP DP  RH WIND       PRES   REMARKS
DENISON DAM      N/A     79  68  69 S9          N/A
CADDO GRASSLND   N/A     77  68  73 S5          N/A
PAT MAYSE LAKE   N/A     77  73  88 SE8         N/A
GREENVILLE       N/A     75  70  83 S5          N/A
CEDAR HILL       N/A     77  68  73 SE8         N/A
LBJ GRASSLAND    N/A     81  68  65 SE9         N/A
POSSUM KINGDOM   N/A     81  68  65 SE10        N/A
GRANBURY         N/A     81  70  69 SE9         N/A
COMANCHE         N/A     75  66  73 S8G17       N/A
MCGREGOR         N/A     75  68  78 S12         N/A
TEMPLE           N/A     75  70  83 SE3         N/A
LAKE LIMESTONE   N/A     73  68  83 SE5         N/A
ATHENS           N/A     75  72  88 S5          N/A
$$

SUPPLEMENTAL OBSERVATIONS (NWS NORMAN AREA)

CITY           SKY/WX    TMP DP  RH WIND       PRES   REMARKS
ODELL            N/A     81  68  63 SE14      29.87S
CROWELL          N/A     84  65  52 S16       29.87S
KNOX CITY        N/A     83  61  46 SE16      29.87S
SEYMOUR          N/A     82  64  53 SE14      29.88S
MILLERS CREEK    N/A     82  64  54 SE14G23     N/A
$$

SUPPLEMENTAL OBSERVATIONS (NWS SAN ANGELO AREA)

CITY           SKY/WX    TMP DP  RH WIND       PRES   REMARKS
WEINERT          N/A     83  64  52 SE14      29.89S
HASKELL          N/A     83  60  46 SE12      29.89S
THROCKMORTON     N/A     81  66  60 SE10      29.91S
STAMFORD         N/A     83  65  53 S13       29.90S
CLYDE            N/A     79  65  63 SE9       29.94S
HAMBY            N/A     82  64  54 S12G20      N/A
IVIE RESERVOIR   N/A     81  66  61 SE10G18     N/A
COLORADO BEND    N/A     75  66  73 S9          N/A
$$

SUPPLEMENTAL OBSERVATIONS (NWS SHREVEPORT AREA)

CITY           SKY/WX    TMP DP  RH WIND       PRES   REMARKS
CLARKSVILLE      N/A     73  66  78 S3          N/A
TEXARKANA        N/A     72  70  94 CALM        N/A
LINDEN           N/A     72  68  88 CALM        N/A
CADDO LAKE       N/A     68  66  94 CALM        N/A
GILMER           N/A     72  68  88 S1          N/A
HENDERSON        N/A     72  70  94 CALM        N/A
LUFKIN           N/A     73  72  94 MISG        N/A
N SABINE NF      N/A     72  70  94 MISG        N/A
S SABINE NF      N/A     72  70  94 CALM        N/A
$$

SUPPLEMENTAL OBSERVATIONS ARE A COLLECTION OF AUTOMATED INSTRUMENTS
THAT ARE MAINTAINED BY A VARIETY OF FEDERAL AND STATE AGENCIES.
CERTAIN ELEMENTS...SUCH AS HUMIDITY VALUES AND SUSTAINED WIND
SPEEDS...MAY BE APPROXIMATED.





USA.gov is the U.S. government's official web portal to all federal, state and local government web resources and services.